Stündliche Wetter Dresden

Heute, 11 April, Sonntag

Zeit Temperatur Niederschläge Wind Luftdruck Luftfeuchtigkeit
00:00 +7°C° 0 mm 3 m/S 748 mmHg 93%
01:00 +7°C° 0 mm 3 m/S 747 mmHg 93%
02:00 +8°C° 0 mm 3 m/S 747 mmHg 92%
03:00 +8°C° 0 mm 3 m/S 746 mmHg 91%
04:00 +8°C° 0 mm 3 m/S 746 mmHg 90%
05:00 +8°C° 0 mm 3 m/S 746 mmHg 88%
06:00 +7°C° 0 mm 4 m/S 746 mmHg 86%
07:00 +8°C° 0 mm 4 m/S 746 mmHg 85%
08:00 +10°C° 0 mm 4 m/S 746 mmHg 79%
09:00 +12°C° 0 mm 4 m/S 746 mmHg 72%
10:00 +13°C° 0 mm 4 m/S 746 mmHg 65%
11:00 +15°C° 0 mm 4 m/S 745 mmHg 62%
12:00 +17°C° 0 mm 3 m/S 745 mmHg 59%
13:00 +18°C° 0 mm 3 m/S 745 mmHg 55%
14:00 +18°C° 0 mm 4 m/S 745 mmHg 56%
15:00 +18°C° 0 mm 4 m/S 745 mmHg 58%
16:00 +18°C° 0 mm 4 m/S 745 mmHg 59%
17:00 +17°C° 0 mm 3 m/S 745 mmHg 65%
18:00 +14°C° 0 mm 3 m/S 745 mmHg 71%
19:00 +12°C° 0 mm 3 m/S 745 mmHg 77%
20:00 +11°C° 0.1 mm 3 m/S 746 mmHg 82%
21:00 +10°C° 0.1 mm 4 m/S 747 mmHg 87%
22:00 +8°C° 0.1 mm 5 m/S 747 mmHg 92%
23:00 +6°C° 0 mm 5 m/S 748 mmHg 93%

Morgen, 12 April, Montag

Zeit Temperatur Niederschläge Wind Luftdruck Luftfeuchtigkeit
00:00 +5°C° 0 mm 4 m/S 749 mmHg 94%
01:00 +4°C° 0 mm 4 m/S 750 mmHg 94%
02:00 +4°C° 0 mm 4 m/S 751 mmHg 94%
03:00 +3°C° 0 mm 4 m/S 751 mmHg 93%
04:00 +3°C° 0 mm 4 m/S 751 mmHg 93%
05:00 +1°C° 0.9 mm 4 m/S 752 mmHg 95%
06:00 +1°C° 0.9 mm 4 m/S 753 mmHg 96%
07:00 +1°C° 0.9 mm 3 m/S 753 mmHg 98%
08:00 +1°C° 1 mm 3 m/S 754 mmHg 97%
09:00 +1°C° 1 mm 3 m/S 754 mmHg 97%
10:00 +1°C° 1 mm 3 m/S 755 mmHg 96%
11:00 +1°C° 0.5 mm 4 m/S 755 mmHg 91%
12:00 +3°C° 0.5 mm 4 m/S 755 mmHg 85%
13:00 +4°C° 0.5 mm 4 m/S 756 mmHg 79%
14:00 +3°C° 0.3 mm 3 m/S 755 mmHg 89%
15:00 +3°C° 0.3 mm 3 m/S 756 mmHg 88%
16:00 +3°C° 0.3 mm 4 m/S 756 mmHg 87%
17:00 +3°C° 0.1 mm 3 m/S 756 mmHg 87%
18:00 +4°C° 0.1 mm 2 m/S 757 mmHg 87%
19:00 +4°C° 0.1 mm 1 m/S 757 mmHg 87%
20:00 +4°C° 0 mm 1 m/S 757 mmHg 87%
21:00 +4°C° 0 mm 1 m/S 757 mmHg 87%
22:00 +4°C° 0 mm 1 m/S 757 mmHg 86%
23:00 +4°C° 0 mm 1 m/S 757 mmHg 87%

übermorgen, 13 April, Dienstag

Zeit Temperatur Niederschläge Wind Luftdruck Luftfeuchtigkeit
00:00 +2°C° 0 mm 2 m/S 758 mmHg 87%
01:00 +2°C° 0 mm 2 m/S 758 mmHg 87%
02:00 +2°C° 0 mm 2 m/S 758 mmHg 88%
03:00 +2°C° 0 mm 1 m/S 758 mmHg 89%
04:00 +2°C° 0 mm 1 m/S 758 mmHg 89%
05:00 +2°C° 0 mm 1 m/S 759 mmHg 88%
06:00 +3°C° 0 mm 1 m/S 759 mmHg 86%
07:00 +3°C° 0 mm 1 m/S 759 mmHg 85%
08:00 +3°C° 0 mm 2 m/S 759 mmHg 80%
09:00 +3°C° 0 mm 3 m/S 759 mmHg 75%
10:00 +5°C° 0 mm 3 m/S 760 mmHg 70%
11:00 +5°C° 0 mm 4 m/S 759 mmHg 65%
12:00 +6°C° 0 mm 4 m/S 759 mmHg 60%
13:00 +6°C° 0 mm 4 m/S 759 mmHg 55%
14:00 +6°C° 0 mm 4 m/S 759 mmHg 54%
15:00 +7°C° 0 mm 4 m/S 758 mmHg 53%
16:00 +7°C° 0 mm 4 m/S 758 mmHg 51%
17:00 +6°C° 0.1 mm 4 m/S 758 mmHg 58%
18:00 +4°C° 0.1 mm 3 m/S 758 mmHg 65%
19:00 +4°C° 0.1 mm 2 m/S 759 mmHg 72%
20:00 +4°C° 0 mm 2 m/S 759 mmHg 75%
21:00 +3°C° 0 mm 2 m/S 759 mmHg 78%
22:00 +2°C° 0 mm 2 m/S 759 mmHg 82%
23:00 +2°C° 0 mm 2 m/S 759 mmHg 84%

14 April, Mittwoch

Zeit Temperatur Niederschläge Wind Luftdruck Luftfeuchtigkeit
00:00 +1°C° 0 mm 2 m/S 759 mmHg 87%
01:00 +1°C° 0 mm 2 m/S 759 mmHg 90%
02:00 +1°C° 0 mm 2 m/S 759 mmHg 91%
03:00 -1°C° 0 mm 2 m/S 759 mmHg 92%
04:00 -1°C° 0 mm 2 m/S 759 mmHg 93%
05:00 -1°C° 0 mm 2 m/S 759 mmHg 91%
06:00 0°C° 0 mm 3 m/S 759 mmHg 90%
07:00 0°C° 0 mm 3 m/S 759 mmHg 88%
08:00 0°C° 0 mm 4 m/S 759 mmHg 80%
09:00 +1°C° 0 mm 4 m/S 759 mmHg 71%
10:00 +3°C° 0 mm 5 m/S 759 mmHg 63%
11:00 +3°C° 0 mm 5 m/S 759 mmHg 58%
12:00 +5°C° 0 mm 5 m/S 758 mmHg 54%
13:00 +6°C° 0 mm 5 m/S 758 mmHg 49%
14:00 +6°C° 0 mm 5 m/S 757 mmHg 49%
15:00 +6°C° 0 mm 5 m/S 757 mmHg 49%
16:00 +6°C° 0 mm 4 m/S 757 mmHg 50%
17:00 +5°C° 0 mm 4 m/S 757 mmHg 56%
18:00 +4°C° 0 mm 3 m/S 757 mmHg 63%
19:00 +4°C° 0 mm 2 m/S 757 mmHg 69%
20:00 +4°C° 0 mm 2 m/S 757 mmHg 73%
21:00 +3°C° 0 mm 2 m/S 757 mmHg 76%
22:00 +3°C° 0 mm 2 m/S 757 mmHg 79%
23:00 +3°C° 0.1 mm 2 m/S 757 mmHg 85%

15 April, Donnerstag

Zeit Temperatur Niederschläge Wind Luftdruck Luftfeuchtigkeit
00:00 +3°C° 0.1 mm 2 m/S 757 mmHg 90%
01:00 +2°C° 0.1 mm 3 m/S 757 mmHg 95%
02:00 +1°C° 0.4 mm 3 m/S 757 mmHg 95%
03:00 +1°C° 0.4 mm 3 m/S 757 mmHg 94%
04:00 +2°C° 0.4 mm 2 m/S 757 mmHg 94%
05:00 +1°C° 0 mm 3 m/S 758 mmHg 91%
06:00 0°C° 0 mm 3 m/S 758 mmHg 88%
07:00 0°C° 0 mm 3 m/S 758 mmHg 85%
08:00 +1°C° 0 mm 3 m/S 758 mmHg 79%
09:00 +1°C° 0 mm 4 m/S 758 mmHg 73%
10:00 +3°C° 0 mm 4 m/S 758 mmHg 67%
11:00 +3°C° 0 mm 4 m/S 758 mmHg 68%
12:00 +3°C° 0 mm 4 m/S 758 mmHg 69%
13:00 +3°C° 0 mm 4 m/S 758 mmHg 69%
14:00 +3°C° 0.2 mm 4 m/S 758 mmHg 75%
15:00 +3°C° 0.2 mm 4 m/S 758 mmHg 81%
16:00 +1°C° 0.2 mm 4 m/S 758 mmHg 87%
17:00 +1°C° 0.4 mm 4 m/S 758 mmHg 90%
18:00 +2°C° 0.4 mm 3 m/S 758 mmHg 93%
19:00 +1°C° 0.4 mm 3 m/S 758 mmHg 96%
20:00 +2°C° 0.3 mm 2 m/S 758 mmHg 95%
21:00 +2°C° 0.3 mm 2 m/S 758 mmHg 95%
22:00 +2°C° 0.3 mm 2 m/S 758 mmHg 94%
23:00 +2°C° 0.1 mm 2 m/S 757 mmHg 94%

16 April, Freitag

Zeit Temperatur Niederschläge Wind Luftdruck Luftfeuchtigkeit
00:00 +2°C° 0.1 mm 2 m/S 757 mmHg 93%
01:00 +2°C° 0.1 mm 2 m/S 757 mmHg 92%
02:00 +2°C° 0.1 mm 2 m/S 757 mmHg 94%
03:00 +1°C° 0.1 mm 2 m/S 757 mmHg 96%
04:00 +1°C° 0.1 mm 2 m/S 757 mmHg 98%
05:00 +1°C° 0.3 mm 2 m/S 758 mmHg 98%
06:00 +2°C° 0.3 mm 2 m/S 758 mmHg 98%
07:00 +2°C° 0.3 mm 2 m/S 758 mmHg 99%
08:00 +2°C° 0.2 mm 2 m/S 758 mmHg 98%
09:00 +4°C° 0.2 mm 1 m/S 758 mmHg 98%
10:00 +4°C° 0.2 mm 1 m/S 758 mmHg 97%
11:00 +5°C° 0 mm 1 m/S 758 mmHg 93%
12:00 +6°C° 0 mm 1 m/S 758 mmHg 88%
13:00 +7°C° 0 mm 1 m/S 758 mmHg 84%
14:00 +8°C° 0 mm 1 m/S 758 mmHg 81%
15:00 +8°C° 0 mm 1 m/S 757 mmHg 77%
16:00 +8°C° 0 mm 2 m/S 757 mmHg 74%
17:00 +8°C° 0 mm 1 m/S 757 mmHg 79%
18:00 +7°C° 0 mm 1 m/S 757 mmHg 83%
19:00 +6°C° 0 mm 1 m/S 757 mmHg 88%
20:00 +5°C° 0 mm 1 m/S 758 mmHg 89%
21:00 +4°C° 0 mm 1 m/S 758 mmHg 90%
22:00 +4°C° 0 mm 1 m/S 758 mmHg 92%
23:00 +4°C° 0 mm 1 m/S 758 mmHg 92%
Mehr zeigen

Wir brauchen deine Erlaubnis

Meteoprog und unser Service Anbieter werden persönliche Daten aufbewahren, so wie Cookies, Geräte Bezeichnung oder ähnliche Technologien von deinem Gerät und Prozess, so wie Persönliche Daten Inhalte und Werbungen, genauso wie social Media und den Verkehr zu analysieren.

  • Aufbewahrung und/oder Zugang zu deiner Geräte Informationen.

    Cookies, Geräte Bezeichnung oder andere Informationen, können aufbewahrt oder Zugang zu deinem Gerät erhalten, für den Grund, der oben angegeben wird.

  • Personalisierte Werbung und Inhalte, Messungen, Einblick in das Publikum und Produkt Entwicklung.

    Werbungen und Inhalte können personalisiert werden, basierend auf ein Profil. Mehr Daten können besser personalisierte Werbungen und Inhalte hinzufügen. Werbung und Inhalte können gezeigt und gemessen werden. Einblicke über das Publikum, welche die Werbung gesehen haben und den Inhalt, können abgeleitet werden. So wie Daten können genutzt werden, um es zu verbessern oder die Benutzer Erfahrung zu verbessern das System und die Software.

Wenn du “Ich stimme zu” klickst, erlaubst du uns, die Cookies zu benutzen die Geräte Bezeichnung, den Web oder ähnliche Technologien zu benutzen. Deine Settings, können in deinem Gerät bei deinem Browser geändert werden.

Für den bestimmten Zweck, berechtigten Interessen beruhen darauf, mehr als auf den Inhalt. Du kannst mehr darüber in unseren Privaten und Cookie Politik lesen.